EW0538 Weather Reports


Display with metric or nautical units.
time (UTC)temp
F
wind
direction
speed
MPH
gust
MPH
rain 1hr
in
rain 24hr
in
rain mn
in
humidity
%
barometer
mb
20260503233652 70 115 0.0 3.0 0.00 0.00 0.00 5 1006.3
20260503231604 68 257 1.0 3.0 0.00 0.00 0.00 10 1006.8
20260503230540 68 181 1.0 5.0 0.00 0.00 0.00 12 1007.0
20260503225551 68 313 0.0 5.0 0.00 0.00 0.00 8 1006.8
20260503224547 68 156 1.0 4.0 0.00 0.00 0.00 8 1006.9
20260503222338 68 233 4.0 10.0 0.00 0.00 0.00 9 1007.2
20260503221309 69 146 2.0 10.0 0.00 0.00 0.00 7 1007.4
20260503220322 70 217 2.0 8.0 0.00 0.00 0.00 7 1007.4
20260503215344 69 314 2.0 8.0 0.00 0.00 0.00 7 1007.5
20260503214351 68 224 0.0 4.0 0.00 0.00 0.00 8 1007.7
20260503211139 66 39 0.0 0.0 0.00 0.00 0.00 15 1008.8
20260503210157 66 91 0.0 2.0 0.00 0.00 0.00 13 1008.9
20260503205157 66 225 0.0 0.0 0.00 0.00 0.00 12 1009.1
20260503204131 67 199 0.0 2.0 0.00 0.00 0.00 12 1009.2
20260503202048 68 40 0.0 2.0 0.00 0.00 0.00 12 1009.3
20260503201045 67 34 0.0 2.0 0.00 0.00 0.00 12 1009.6
20260503200051 67 32 0.0 4.0 0.00 0.00 0.00 11 1009.7
20260503195113 67 31 1.0 4.0 0.00 0.00 0.00 11 1009.8
20260503194106 66 299 0.0 2.0 0.00 0.00 0.00 16 1009.9
20260503193130 66 158 1.0 7.0 0.00 0.00 0.00 15 1010.2
20260503192152 66 169 1.0 7.0 0.00 0.00 0.00 13 1010.2
20260503191146 66 262 0.0 4.0 0.00 0.00 0.00 12 1010.3
20260503184939 65 172 0.0 6.0 0.00 0.00 0.00 15 1010.8
20260503183907 65 342 0.0 0.0 0.00 0.00 0.00 14 1011.0
20260503181804 65 353 0.0 0.0 0.00 0.00 0.00 16 1011.4
20260503180813 64 297 0.0 0.0 0.00 0.00 0.00 13 1011.6
20260503175812 65 301 0.0 0.0 0.00 0.00 0.00 14 1011.8
20260503174830 65 337 0.0 0.0 0.00 0.00 0.00 19 1012.0
20260503173839 64 35 0.0 2.0 0.00 0.00 0.00 15 1012.2
20260503172834 63 70 0.0 2.0 0.00 0.00 0.00 16 1012.4
20260503170717 64 15 0.0 2.0 0.00 0.00 0.00 21 1012.8
20260503150554 50 233 0.0 3.0 0.00 0.00 0.00 35 1015.9
20260503130452 32 84 0.0 0.0 0.00 0.00 0.00 63 1016.1
20260503080740 40 84 0.0 0.0 0.00 0.00 0.00 45 1017.3
20260503072459 42 90 0.0 3.0 0.00 0.00 0.00 43 1017.3
20260503071458 42 93 0.0 0.0 0.00 0.00 0.00 44 1017.3
20260503070426 41 84 0.0 0.0 0.00 0.00 0.00 46 1017.1
20260503054438 42 83 0.0 0.0 0.00 0.00 0.00 45 1016.7
20260503053437 42 83 0.0 0.0 0.00 0.00 0.00 43 1016.6
20260503052410 43 83 0.0 0.0 0.00 0.00 0.00 44 1016.6
20260503051422 42 78 0.0 1.0 0.00 0.00 0.00 42 1016.6
20260503050442 43 39 0.0 0.0 0.00 0.00 0.00 43 1016.5
20260503045506 43 39 0.0 0.0 0.00 0.00 0.00 41 1016.4
20260503044511 44 39 0.0 0.0 0.00 0.00 0.00 40 1016.3
20260503043500 44 39 0.0 0.0 0.00 0.00 0.00 39 1016.2
20260503042521 45 39 0.0 0.0 0.00 0.00 0.00 39 1016.2
20260503041459 45 39 0.0 0.0 0.00 0.00 0.00 38 1016.1
20260503040456 46 39 0.0 0.0 0.00 0.00 0.00 38 1016.1
20260503035455 47 39 0.0 0.0 0.00 0.00 0.00 34 1015.9
20260503034423 48 39 0.0 0.0 0.00 0.00 0.00 35 1015.8
20260503032255 50 39 0.0 0.0 0.00 0.00 0.00 33 1015.5
20260503031321 50 39 0.0 0.0 0.00 0.00 0.00 29 1015.4
20260503030310 51 39 0.0 0.0 0.00 0.00 0.00 26 1015.3
20260503025257 53 39 0.0 0.0 0.00 0.00 0.00 25 1015.2
20260503024318 54 17 0.0 2.0 0.00 0.00 0.00 22 1014.9
20260503022202 55 57 0.0 0.0 0.00 0.00 0.00 20 1014.4
20260503021209 56 57 0.0 1.0 0.00 0.00 0.00 20 1014.2
20260503020204 58 195 0.0 0.0 0.00 0.00 0.00 19 1014.1
20260503015147 60 197 0.0 0.0 0.00 0.00 0.00 16 1013.9
20260503014152 62 113 0.0 0.0 0.00 0.00 0.00 12 1013.9
20260503010931 64 196 1.0 7.0 0.00 0.00 0.00 12 1013.6
20260503005939 64 152 1.0 5.0 0.00 0.00 0.00 11 1013.6
20260503004914 65 127 1.0 1.0 0.00 0.00 0.00 12 1013.6
20260503003845 65 167 1.0 4.0 0.00 0.00 0.00 12 1013.7
20260503002831 65 144 0.0 4.0 0.00 0.00 0.00 11 1013.8
20260503001841 65 141 0.0 1.0 0.00 0.00 0.00 14 1013.8
20260503000851 65 89 0.0 4.0 0.00 0.00 0.00 14 1013.9
20260502235820 66 222 0.0 3.0 0.00 0.00 0.00 12 1014.0
20260502234749 66 150 0.0 1.0 0.00 0.00 0.00 13 1014.1